Location: LDNL
(36.4545°S, 141.6685°E)
Time: 10:55:22
(UTC+10:00)

Tiros 1 despin weight - Pass Details

Date: 14 August 2022
Orbit: 590 x 639 km, 48.2° (Epoch: 23 September)

Event Time Altitude Azimuth Distance (km) Brightness Sun altitude
Rises 05:04:43 0° 232° (SW) 2,959 - -27.2°
Reaches altitude 10° 05:07:10 10° 225° (SW) 2,050 - -26.7°
Exits shadow 05:11:13 41° 170° (S) 934 ? -25.9°
Maximum altitude 05:11:41 43° 153° (SSE) 913 ? -25.8°
Drops below altitude 10° 05:16:11 10° 81° (E) 2,039 ? -24.9°
Sets 05:18:36 0° 74° (ENE) 2,940 ? -24.4°
